| time (UTC) | temp C | wind direction | speed KPH | gust KPH | rain 1hr cm | rain 24hr cm | rain mn cm | humidity % | barometer mb |
| 20260508104545 | 15 | 0 | 0.0 | 0.0 | 0.00 | 0.25 | 0.00 | 96 | 1015.7 |
| 20260508103047 | 15 | 0 | 0.0 | 0.0 | 0.00 | 0.25 | 0.00 | 96 | 1015.3 |
| 20260508101541 | 15 | 0 | 0.0 | 0.0 | 0.00 | 0.25 | 0.00 | 96 | 1015.1 |
| 20260508100040 | 15 | 0 | 0.0 | 0.0 | 0.00 | 0.25 | 0.00 | 96 | 1014.8 |
| 20260508094551 | 15 | 0 | 0.0 | 0.0 | 0.00 | 3.40 | 0.00 | 96 | 1015.3 |
| 20260508093045 | 15 | 0 | 0.0 | 0.0 | 0.00 | 3.40 | 0.00 | 96 | 1014.8 |
| 20260508091545 | 15 | 0 | 0.0 | 0.0 | 0.00 | 3.40 | 0.00 | 96 | 1014.8 |
| 20260508090049 | 15 | 0 | 0.0 | 0.0 | 0.00 | 3.40 | 0.00 | 96 | 1015.1 |
| 20260508084547 | 15 | 0 | 0.0 | 0.0 | 0.00 | 4.70 | 0.00 | 96 | 1015.4 |
| 20260508083051 | 15 | 0 | 0.0 | 0.0 | 0.00 | 4.70 | 0.00 | 96 | 1015.2 |
| 20260508081608 | 15 | 0 | 0.0 | 0.0 | 0.00 | 4.70 | 0.00 | 96 | 1015.1 |
| 20260508080047 | 15 | 0 | 0.0 | 0.0 | 0.00 | 4.70 | 0.00 | 95 | 1014.9 |
| 20260508074545 | 15 | 0 | 0.0 | 0.0 | 0.00 | 6.12 | 0.00 | 95 | 1014.9 |
| 20260508073044 | 15 | 0 | 0.0 | 0.0 | 0.00 | 6.12 | 0.00 | 95 | 1015.0 |
| 20260508071541 | 15 | 0 | 0.0 | 0.0 | 0.00 | 6.12 | 0.00 | 95 | 1015.1 |
| 20260508070057 | 15 | 0 | 0.0 | 0.0 | 0.00 | 6.12 | 0.00 | 95 | 1014.5 |
| 20260508064543 | 15 | 0 | 0.0 | 0.0 | 0.00 | 7.52 | 0.00 | 94 | 1015.1 |
| 20260508063047 | 16 | 0 | 0.0 | 0.0 | 0.00 | 7.52 | 0.00 | 94 | 1015.2 |
| 20260508061545 | 16 | 0 | 0.0 | 0.0 | 0.00 | 7.52 | 0.00 | 94 | 1015.1 |
| 20260508060046 | 16 | 0 | 0.0 | 0.0 | 0.00 | 7.52 | 0.00 | 94 | 1015.1 |
| 20260508054546 | 16 | 0 | 0.0 | 0.0 | 0.00 | 7.54 | 0.00 | 94 | 1015.3 |
| 20260508053046 | 16 | 0 | 0.0 | 0.0 | 0.00 | 7.54 | 0.00 | 94 | 1015.4 |
| 20260508051541 | 16 | 0 | 0.0 | 0.0 | 0.00 | 7.54 | 0.00 | 94 | 1015.4 |
| 20260508050047 | 16 | 0 | 0.0 | 0.0 | 0.00 | 7.54 | 0.00 | 95 | 1015.5 |
| 20260508044600 | 16 | 0 | 0.0 | 0.0 | 0.00 | 7.54 | 7.54 | 94 | 1015.9 |
| 20260508043047 | 16 | 0 | 0.0 | 0.0 | 0.00 | 7.54 | 7.54 | 94 | 1015.8 |
| 20260508041543 | 16 | 0 | 0.0 | 0.0 | 0.00 | 7.54 | 7.54 | 93 | 1016.0 |
| 20260508040044 | 16 | 0 | 0.0 | 0.0 | 0.00 | 7.54 | 7.54 | 93 | 1016.1 |
| 20260508034553 | 16 | 0 | 0.0 | 0.0 | 0.00 | 7.54 | 7.54 | 93 | 1016.2 |
| 20260508033047 | 16 | 0 | 0.0 | 0.0 | 0.00 | 7.54 | 7.54 | 93 | 1016.4 |
| 20260508031544 | 16 | 0 | 0.0 | 0.0 | 0.00 | 7.54 | 7.54 | 93 | 1016.2 |
| 20260508030051 | 17 | 0 | 0.0 | 0.0 | 0.00 | 7.54 | 7.54 | 92 | 1016.0 |
| 20260508024546 | 17 | 0 | 0.0 | 0.0 | 0.00 | 8.43 | 7.54 | 92 | 1016.0 |
| 20260508023041 | 17 | 0 | 0.0 | 0.0 | 0.00 | 8.43 | 7.54 | 91 | 1016.0 |
| 20260508021545 | 17 | 0 | 0.0 | 0.0 | 0.00 | 8.43 | 7.54 | 90 | 1016.0 |
| 20260508020048 | 17 | 0 | 0.0 | 0.0 | 0.00 | 8.43 | 7.54 | 90 | 1015.6 |
| 20260508014547 | 17 | 0 | 0.0 | 0.0 | 0.00 | 9.91 | 7.54 | 89 | 1015.7 |
| 20260508013051 | 17 | 0 | 0.0 | 0.0 | 0.00 | 9.91 | 7.54 | 89 | 1015.2 |
| 20260508011546 | 17 | 0 | 0.0 | 0.0 | 0.00 | 9.91 | 7.54 | 89 | 1015.3 |
| 20260508010046 | 18 | 0 | 0.0 | 0.0 | 0.00 | 9.91 | 7.54 | 88 | 1015.2 |
| 20260508004551 | 18 | 0 | 0.0 | 0.0 | 0.00 | 9.91 | 7.54 | 87 | 1015.0 |
| 20260508003047 | 18 | 0 | 0.0 | 0.0 | 0.00 | 9.91 | 7.54 | 87 | 1015.1 |
| 20260508001544 | 18 | 0 | 0.0 | 0.0 | 0.00 | 9.91 | 7.54 | 86 | 1015.0 |
| 20260508000044 | 19 | 0 | 0.0 | 0.0 | 0.00 | 9.91 | 7.54 | 85 | 1014.8 |
| 20260507234547 | 19 | 0 | 0.0 | 0.0 | 0.00 | 9.91 | 7.54 | 84 | 1014.9 |
| 20260507233046 | 20 | 0 | 0.0 | 0.0 | 0.00 | 9.91 | 7.54 | 83 | 1014.9 |
| 20260507231550 | 20 | 0 | 0.0 | 0.0 | 0.00 | 9.91 | 7.54 | 82 | 1015.1 |
| 20260507230052 | 20 | 0 | 0.0 | 0.0 | 0.00 | 9.91 | 7.54 | 81 | 1015.0 |
| 20260507224546 | 20 | 0 | 0.0 | 0.0 | 0.00 | 9.91 | 7.54 | 81 | 1015.0 |
| 20260507223043 | 21 | 0 | 0.0 | 0.0 | 0.00 | 9.91 | 7.54 | 80 | 1014.6 |
| 20260507221542 | 21 | 0 | 0.0 | 0.0 | 0.00 | 9.91 | 7.54 | 80 | 1014.5 |
| 20260507220046 | 21 | 0 | 0.0 | 0.0 | 0.00 | 9.91 | 7.54 | 80 | 1014.2 |
| 20260507214544 | 22 | 0 | 0.0 | 0.0 | 0.00 | 9.91 | 7.54 | 77 | 1014.1 |
| 20260507213043 | 22 | 0 | 0.0 | 0.0 | 0.00 | 9.91 | 7.54 | 77 | 1014.3 |
| 20260507211546 | 22 | 0 | 0.0 | 0.0 | 0.00 | 9.91 | 7.54 | 77 | 1014.3 |
| 20260507210044 | 23 | 0 | 0.0 | 0.0 | 0.00 | 9.91 | 7.54 | 77 | 1014.2 |
| 20260507204546 | 23 | 0 | 0.0 | 0.0 | 0.00 | 9.91 | 7.54 | 76 | 1014.2 |
| 20260507203051 | 23 | 0 | 0.0 | 0.0 | 0.00 | 9.91 | 7.54 | 75 | 1014.1 |
| 20260507201544 | 23 | 0 | 0.0 | 0.0 | 0.00 | 9.91 | 7.54 | 75 | 1014.2 |
| 20260507200050 | 24 | 0 | 0.0 | 0.0 | 0.00 | 9.91 | 7.54 | 72 | 1014.1 |
| 20260507194543 | 23 | 0 | 0.0 | 0.0 | 0.00 | 9.91 | 7.54 | 75 | 1014.1 |
| 20260507193045 | 23 | 0 | 0.0 | 0.0 | 0.00 | 9.91 | 7.54 | 74 | 1014.1 |
| 20260507191545 | 23 | 0 | 0.0 | 0.0 | 0.00 | 9.91 | 7.54 | 76 | 1014.3 |
| 20260507190045 | 23 | 0 | 0.0 | 0.0 | 0.00 | 9.91 | 7.54 | 77 | 1014.4 |
| 20260507184544 | 23 | 0 | 0.0 | 0.0 | 0.00 | 9.91 | 7.54 | 77 | 1014.5 |
| 20260507183045 | 22 | 0 | 0.0 | 0.0 | 0.00 | 9.91 | 7.54 | 79 | 1014.6 |
| 20260507181543 | 22 | 0 | 0.0 | 0.0 | 0.00 | 9.91 | 7.54 | 80 | 1014.5 |
| 20260507180044 | 22 | 0 | 0.0 | 0.0 | 0.00 | 9.91 | 7.54 | 80 | 1014.7 |
| 20260507174551 | 22 | 0 | 0.0 | 0.0 | 0.00 | 9.91 | 7.54 | 79 | 1014.7 |
| 20260507173051 | 21 | 0 | 0.0 | 0.0 | 0.00 | 9.91 | 7.54 | 82 | 1014.9 |
| 20260507171605 | 21 | 0 | 0.0 | 0.0 | 0.00 | 9.91 | 7.54 | 83 | 1015.1 |
| 20260507170047 | 20 | 0 | 0.0 | 0.0 | 0.00 | 9.91 | 7.54 | 83 | 1015.3 |
| 20260507164602 | 20 | 0 | 0.0 | 0.0 | 0.00 | 9.91 | 7.54 | 85 | 1015.7 |
| 20260507163045 | 20 | 0 | 0.0 | 0.0 | 0.00 | 9.91 | 7.54 | 84 | 1015.8 |
| 20260507161547 | 20 | 0 | 0.0 | 0.0 | 0.00 | 9.91 | 7.54 | 88 | 1015.6 |
| 20260507160045 | 18 | 0 | 0.0 | 0.0 | 0.00 | 9.91 | 7.54 | 89 | 1015.6 |
| 20260507154547 | 18 | 0 | 0.0 | 0.0 | 0.00 | 9.91 | 7.54 | 92 | 1015.7 |
| 20260507153047 | 17 | 0 | 0.0 | 0.0 | 0.00 | 9.91 | 7.54 | 94 | 1015.7 |
| 20260507151544 | 17 | 0 | 0.0 | 0.0 | 0.00 | 9.91 | 7.54 | 95 | 1015.9 |
| 20260507150047 | 17 | 0 | 0.0 | 0.0 | 0.00 | 9.91 | 7.54 | 96 | 1015.7 |
| 20260507144546 | 17 | 0 | 0.0 | 0.0 | 0.00 | 9.91 | 7.54 | 97 | 1015.5 |
| 20260507143052 | 17 | 0 | 0.0 | 0.0 | 0.00 | 9.91 | 7.54 | 96 | 1014.8 |
| 20260507141551 | 17 | 0 | 0.0 | 0.0 | 0.00 | 9.91 | 7.54 | 96 | 1014.7 |
| 20260507140044 | 18 | 0 | 0.0 | 0.0 | 0.00 | 9.91 | 7.54 | 96 | 1014.3 |
| 20260507134552 | 18 | 0 | 0.0 | 0.0 | 0.00 | 9.91 | 7.54 | 96 | 1014.5 |
| 20260507133047 | 18 | 0 | 0.0 | 0.0 | 0.00 | 9.91 | 7.54 | 96 | 1014.4 |
| 20260507131547 | 19 | 0 | 0.0 | 0.0 | 0.00 | 9.91 | 7.54 | 96 | 1014.3 |
| 20260507130045 | 20 | 0 | 0.0 | 0.0 | 0.00 | 9.91 | 7.54 | 96 | 1014.0 |
| 20260507124550 | 20 | 0 | 0.0 | 0.0 | 0.03 | 9.91 | 7.54 | 96 | 1013.7 |
| 20260507123045 | 20 | 0 | 0.0 | 0.0 | 0.03 | 9.91 | 7.54 | 96 | 1013.3 |
| 20260507121543 | 21 | 0 | 0.0 | 0.0 | 0.05 | 9.91 | 7.54 | 96 | 1013.0 |
| 20260507120042 | 21 | 0 | 0.0 | 0.0 | 0.03 | 9.88 | 7.52 | 97 | 1012.6 |
| 20260507114545 | 21 | 0 | 0.0 | 0.0 | 0.03 | 9.88 | 7.52 | 97 | 1012.2 |
| 20260507113045 | 21 | 0 | 0.0 | 0.0 | 0.03 | 9.88 | 7.52 | 97 | 1011.7 |
| 20260507111544 | 21 | 0 | 0.0 | 0.0 | 0.00 | 9.86 | 7.49 | 97 | 1011.2 |
| 20260507110100 | 21 | 0 | 0.0 | 0.0 | 0.18 | 9.86 | 7.49 | 97 | 1010.8 |